This is the latest recevied weather packets stored in our database for station/object W4SNA-4. If no packets are shown the sender has not sent any weather packets the latest 10 day(s).
| Time | Temp. | Humidity | Pressure | Rain* | Wind** | Luminosity | Snow |
|---|---|---|---|---|---|---|---|
| 1777501945 | 23.33° C | 74% | 1003 hPa | 0 mm | - | - | - |
| 1777501644 | 23.33° C | 74% | 1003 hPa | 0 mm | - | - | - |
| 1777501344 | 23.33° C | 75% | 1003 hPa | 0 mm | - | - | - |
| 1777501043 | 23.89° C | 75% | 1003 hPa | 0 mm | - | - | - |
| 1777500745 | 23.89° C | 74% | 1003 hPa | 0 mm | - | - | - |
| 1777500444 | 23.89° C | 73% | 1003 hPa | 0 mm | - | - | - |
| 1777500144 | 23.89° C | 73% | 1003 hPa | 0 mm | - | - | - |
| 1777499844 | 23.89° C | 73% | 1003 hPa | 0 mm | - | - | - |
| 1777499554 | 23.89° C | 71% | 1003.3 hPa | 0 mm | - | - | - |
| 1777499243 | 23.89° C | 72% | 1003.3 hPa | 0 mm | - | - | - |
| 1777498944 | 23.89° C | 70% | 1003.3 hPa | 0 mm | - | - | - |
| 1777498644 | 23.89° C | 71% | 1003.5 hPa | 0 mm | - | - | - |
| 1777498345 | 23.89° C | 72% | 1003.5 hPa | 0 mm | - | - | - |
| 1777498044 | 23.89° C | 74% | 1003.5 hPa | 0 mm | - | - | - |
| 1777497744 | 23.33° C | 73% | 1003.6 hPa | 0 mm | - | - | - |
| 1777497444 | 23.33° C | 73% | 1003.6 hPa | 0 mm | - | - | - |
| 1777497145 | 23.33° C | 73% | 1003.6 hPa | 0 mm | - | - | - |
| 1777496844 | 23.33° C | 76% | 1003.7 hPa | 0 mm | - | - | - |
| 1777496547 | 23.33° C | 75% | 1003.7 hPa | 0 mm | - | - | - |
| 1777496244 | 22.78° C | 74% | 1003.7 hPa | 0 mm | - | - | - |
| 1777495985 | 23.33° C | 75% | 1003.6 hPa | 0 mm | - | - | - |
| 1777495944 | 23.33° C | 75% | 1003.6 hPa | 0 mm | - | - | - |
| 1777495644 | 23.33° C | 75% | 1003.6 hPa | 0 mm | - | - | - |
| 1777495344 | 23.33° C | 75% | 1003.6 hPa | 0 mm | - | - | - |
| 1777495044 | 23.89° C | 75% | 1004 hPa | 0 mm | - | - | - |
* Rain latest hour (hover to see other rain measurements)
** Current wind speed in m/s (hover to see current wind gust speed)